When you browse on this site, cookies collect data to enhance your experience and personalize the content and advertising you see.
Visit our Privacy Policy to learn more. By continuing to use the site, you agree to this use of cookies and data.
  • Em Portugal
  • Lista de países
  • Para 7 dias
  • Temperatura da água
  • Mapas de satélite
  • Mapa do tempo
  • Widgets de tempo
  • user-avatar
    Iniciar Sessão

    Previsão horária em Gerata

    Hoje, 24 Maio, Sexta-feira

    Tempo Temperatura Precipitação Vento Pressão Humidade
    00:00 +17°C° 0 mm 2 m/s 679 mmHg 39%
    01:00 +18°C° 0 mm 1 m/s 678 mmHg 41%
    02:00 +16°C° 0 mm 1 m/s 678 mmHg 42%
    03:00 +16°C° 0 mm 1 m/s 678 mmHg 43%
    04:00 +15°C° 0 mm 1 m/s 678 mmHg 43%
    05:00 +15°C° 0 mm 0 m/s 678 mmHg 40%
    06:00 +16°C° 0 mm 0 m/s 679 mmHg 36%
    07:00 +17°C° 0 mm 0 m/s 679 mmHg 32%
    08:00 +21°C° 0 mm 1 m/s 680 mmHg 27%
    09:00 +23°C° 0 mm 1 m/s 680 mmHg 22%
    10:00 +24°C° 0 mm 1 m/s 680 mmHg 17%
    11:00 +26°C° 0 mm 1 m/s 680 mmHg 15%
    12:00 +27°C° 0 mm 2 m/s 680 mmHg 14%
    13:00 +28°C° 0 mm 2 m/s 681 mmHg 13%
    14:00 +29°C° 0 mm 2 m/s 680 mmHg 13%
    15:00 +29°C° 0 mm 3 m/s 680 mmHg 14%
    16:00 +29°C° 0 mm 3 m/s 680 mmHg 14%
    17:00 +28°C° 0 mm 3 m/s 680 mmHg 16%
    18:00 +27°C° 0 mm 3 m/s 680 mmHg 17%
    19:00 +27°C° 0 mm 2 m/s 680 mmHg 19%
    20:00 +26°C° 0 mm 2 m/s 681 mmHg 19%
    21:00 +25°C° 0 mm 2 m/s 681 mmHg 19%
    22:00 +25°C° 0 mm 2 m/s 681 mmHg 19%
    23:00 +24°C° 0 mm 2 m/s 681 mmHg 19%

    Amanhã, 25 Maio, Sábado

    Tempo Temperatura Precipitação Vento Pressão Humidade
    00:00 +24°C° 0 mm 2 m/s 681 mmHg 19%
    01:00 +23°C° 0 mm 2 m/s 680 mmHg 19%
    02:00 +23°C° 0 mm 2 m/s 680 mmHg 19%
    03:00 +22°C° 0 mm 3 m/s 680 mmHg 20%
    04:00 +21°C° 0 mm 3 m/s 680 mmHg 20%
    05:00 +23°C° 0 mm 2 m/s 680 mmHg 20%
    06:00 +25°C° 0 mm 2 m/s 681 mmHg 20%
    07:00 +26°C° 0 mm 2 m/s 681 mmHg 19%
    08:00 +27°C° 0 mm 2 m/s 682 mmHg 20%
    09:00 +28°C° 0 mm 2 m/s 682 mmHg 20%
    10:00 +29°C° 0 mm 2 m/s 682 mmHg 20%
    11:00 +30°C° 0 mm 3 m/s 682 mmHg 19%
    12:00 +32°C° 0 mm 4 m/s 682 mmHg 18%
    13:00 +33°C° 0 mm 4 m/s 682 mmHg 17%
    14:00 +33°C° 0 mm 5 m/s 682 mmHg 17%
    15:00 +33°C° 0 mm 6 m/s 681 mmHg 16%
    16:00 +33°C° 0 mm 7 m/s 681 mmHg 16%
    17:00 +32°C° 0 mm 7 m/s 681 mmHg 18%
    18:00 +30°C° 0 mm 7 m/s 681 mmHg 20%
    19:00 +28°C° 0 mm 7 m/s 681 mmHg 21%
    20:00 +27°C° 0 mm 6 m/s 681 mmHg 23%
    21:00 +26°C° 0 mm 4 m/s 681 mmHg 25%
    22:00 +26°C° 0 mm 3 m/s 681 mmHg 26%
    23:00 +25°C° 0 mm 3 m/s 681 mmHg 28%

    Depois de amanhã, 26 Maio, Domingo

    Tempo Temperatura Precipitação Vento Pressão Humidade
    00:00 +24°C° 0 mm 3 m/s 681 mmHg 29%
    01:00 +22°C° 0 mm 3 m/s 681 mmHg 31%
    02:00 +22°C° 0 mm 3 m/s 680 mmHg 31%
    03:00 +21°C° 0 mm 3 m/s 680 mmHg 32%
    04:00 +21°C° 0 mm 3 m/s 680 mmHg 33%
    05:00 +22°C° 0 mm 3 m/s 680 mmHg 30%
    06:00 +24°C° 0 mm 3 m/s 681 mmHg 27%
    07:00 +25°C° 0 mm 3 m/s 681 mmHg 25%
    08:00 +27°C° 0 mm 4 m/s 681 mmHg 22%
    09:00 +28°C° 0 mm 4 m/s 682 mmHg 19%
    10:00 +30°C° 0 mm 5 m/s 682 mmHg 16%
    11:00 +32°C° 0 mm 5 m/s 682 mmHg 15%
    12:00 +33°C° 0 mm 6 m/s 681 mmHg 13%
    13:00 +34°C° 0 mm 6 m/s 681 mmHg 12%
    14:00 +34°C° 0 mm 7 m/s 681 mmHg 12%
    15:00 +34°C° 0 mm 7 m/s 680 mmHg 12%
    16:00 +34°C° 0 mm 8 m/s 680 mmHg 12%
    17:00 +32°C° 0 mm 7 m/s 680 mmHg 14%
    18:00 +30°C° 0 mm 7 m/s 680 mmHg 15%
    19:00 +29°C° 0 mm 7 m/s 680 mmHg 17%
    20:00 +28°C° 0 mm 6 m/s 680 mmHg 18%
    21:00 +27°C° 0 mm 6 m/s 680 mmHg 19%
    22:00 +26°C° 0 mm 5 m/s 680 mmHg 20%
    23:00 +25°C° 0 mm 5 m/s 680 mmHg 21%

    27 Maio, Segunda-feira

    Tempo Temperatura Precipitação Vento Pressão Humidade
    00:00 +25°C° 0 mm 4 m/s 679 mmHg 22%
    01:00 +24°C° 0 mm 3 m/s 679 mmHg 23%
    02:00 +22°C° 0 mm 3 m/s 679 mmHg 24%
    03:00 +22°C° 0 mm 3 m/s 679 mmHg 24%
    04:00 +21°C° 0 mm 3 m/s 679 mmHg 24%
    05:00 +24°C° 0 mm 3 m/s 679 mmHg 22%
    06:00 +25°C° 0 mm 4 m/s 680 mmHg 20%
    07:00 +27°C° 0 mm 4 m/s 680 mmHg 18%
    08:00 +28°C° 0 mm 4 m/s 681 mmHg 15%
    09:00 +30°C° 0 mm 5 m/s 681 mmHg 12%
    10:00 +33°C° 0 mm 5 m/s 681 mmHg 10%
    11:00 +34°C° 0 mm 5 m/s 681 mmHg 9%
    12:00 +35°C° 0 mm 6 m/s 681 mmHg 8%
    13:00 +36°C° 0 mm 6 m/s 680 mmHg 8%
    14:00 +36°C° 0 mm 7 m/s 680 mmHg 8%
    15:00 +37°C° 0 mm 8 m/s 680 mmHg 8%
    16:00 +37°C° 0 mm 9 m/s 680 mmHg 8%
    17:00 +34°C° 0 mm 8 m/s 680 mmHg 9%
    18:00 +33°C° 0 mm 8 m/s 680 mmHg 10%
    19:00 +31°C° 0 mm 8 m/s 679 mmHg 11%
    20:00 +29°C° 0 mm 7 m/s 680 mmHg 12%
    21:00 +28°C° 0 mm 6 m/s 680 mmHg 12%
    22:00 +27°C° 0 mm 5 m/s 680 mmHg 13%
    23:00 +27°C° 0 mm 5 m/s 679 mmHg 14%

    28 Maio, Terça-feira

    Tempo Temperatura Precipitação Vento Pressão Humidade
    00:00 +26°C° 0 mm 5 m/s 679 mmHg 14%
    01:00 +25°C° 0 mm 5 m/s 679 mmHg 15%
    02:00 +25°C° 0 mm 5 m/s 679 mmHg 15%
    03:00 +23°C° 0 mm 5 m/s 679 mmHg 15%
    04:00 +23°C° 0 mm 5 m/s 679 mmHg 16%
    05:00 +25°C° 0 mm 5 m/s 679 mmHg 15%
    06:00 +27°C° 0 mm 6 m/s 680 mmHg 14%
    07:00 +28°C° 0 mm 6 m/s 680 mmHg 13%
    08:00 +30°C° 0 mm 7 m/s 681 mmHg 11%
    09:00 +32°C° 0 mm 8 m/s 681 mmHg 10%
    10:00 +34°C° 0 mm 9 m/s 681 mmHg 9%
    11:00 +36°C° 0 mm 10 m/s 681 mmHg 9%
    12:00 +36°C° 0 mm 10 m/s 680 mmHg 9%
    13:00 +37°C° 0 mm 11 m/s 680 mmHg 9%
    14:00 +37°C° 0 mm 11 m/s 680 mmHg 9%
    15:00 +37°C° 0 mm 12 m/s 680 mmHg 9%
    16:00 +36°C° 0 mm 12 m/s 679 mmHg 10%
    17:00 +34°C° 0 mm 11 m/s 679 mmHg 11%
    18:00 +33°C° 0 mm 11 m/s 679 mmHg 12%
    19:00 +32°C° 0 mm 10 m/s 680 mmHg 13%
    20:00 +31°C° 0 mm 10 m/s 680 mmHg 13%
    21:00 +29°C° 0 mm 9 m/s 680 mmHg 13%
    22:00 +28°C° 0 mm 9 m/s 680 mmHg 13%
    23:00 +28°C° 0 mm 8 m/s 680 mmHg 13%

    29 Maio, Quarta-feira

    Tempo Temperatura Precipitação Vento Pressão Humidade
    00:00 +27°C° 0 mm 8 m/s 680 mmHg 13%
    01:00 +26°C° 0 mm 8 m/s 679 mmHg 13%
    02:00 +26°C° 0 mm 8 m/s 679 mmHg 14%
    03:00 +24°C° 0 mm 7 m/s 679 mmHg 15%
    04:00 +24°C° 0 mm 7 m/s 679 mmHg 16%
    05:00 +24°C° 0 mm 8 m/s 679 mmHg 20%
    06:00 +24°C° 0 mm 9 m/s 680 mmHg 25%
    07:00 +26°C° 0 mm 9 m/s 680 mmHg 29%
    08:00 +27°C° 0 mm 9 m/s 680 mmHg 26%
    09:00 +29°C° 0 mm 9 m/s 680 mmHg 22%
    10:00 +32°C° 0 mm 9 m/s 680 mmHg 19%
    11:00 +33°C° 0 mm 10 m/s 680 mmHg 16%
    12:00 +34°C° 0 mm 10 m/s 680 mmHg 14%
    13:00 +36°C° 0 mm 11 m/s 680 mmHg 12%
    14:00 +36°C° 0 mm 11 m/s 679 mmHg 11%
    15:00 +36°C° 0 mm 11 m/s 679 mmHg 10%
    16:00 +34°C° 0 mm 11 m/s 679 mmHg 10%
    17:00 +33°C° 0 mm 11 m/s 679 mmHg 10%
    18:00 +32°C° 0 mm 10 m/s 679 mmHg 11%
    19:00 +31°C° 0 mm 10 m/s 679 mmHg 12%
    20:00 +29°C° 0 mm 10 m/s 679 mmHg 12%
    21:00 +28°C° 0 mm 10 m/s 679 mmHg 13%
    22:00 +28°C° 0 mm 10 m/s 679 mmHg 13%
    23:00 +27°C° 0 mm 9 m/s 679 mmHg 13%
    Mostrar mais